EHI
24 30 33 32 34 38 40 42 44 47 51 52 50 47 41 34 28 23 20 19 18 17 15 14 16 16 15 14 15 17 16 15 12 11 9 7 7 8 6 6 6 4 3
26 30 32 31 33 36 39 40 41 45 47 48 47 45 39 32 26 21 21 21 19 18 15 15 15 15 14 14 15 16 16 15 14 12 10 8 7 6 4 5 6 4 4
23 28 29 29 31 34 37 38 39 40 41 44 43 38 33 28 22 20 22 22 20 18 16 15 14 14 13 13 15 16 16 16 15 14 11 9 7 5 3 3 5 5 4
17 21 23 25 29 33 35 36 36 35 36 40 39 32 25 22 20 20 22 23 20 17 15 15 15 14 13 14 16 17 17 17 16 15 11 9 7 5 3 2 3 4 4
14 16 20 23 26 30 31 32 33 33 33 35 33 25 19 17 19 20 22 22 20 16 13 14 16 17 17 17 18 18 18 17 16 14 12 9 7 5 3 2 2 2 1
15 16 20 23 23 25 27 29 32 33 32 31 26 20 16 16 17 18 19 20 18 14 13 15 18 20 20 20 20 19 17 16 15 14 11 8 6 4 3 1 1 1 0
13 15 19 22 22 22 24 27 30 32 31 27 22 17 15 15 15 15 15 16 14 13 14 17 21 22 21 21 20 18 15 14 13 11 9 7 6 5 4 2 1 0 0
11 13 17 19 19 20 22 24 26 28 27 25 21 17 14 13 12 13 13 13 14 14 16 19 21 22 20 18 18 16 13 11 10 9 7 7 6 6 6 4 2 1 0
10 12 14 15 18 20 21 20 21 22 22 21 19 16 13 12 11 11 12 13 14 15 16 18 19 19 17 15 15 14 10 9 8 7 7 6 6 6 6 5 3 1 1
9 10 12 13 16 19 19 16 15 17 18 18 16 14 12 11 12 12 11 12 14 14 15 15 15 13 12 12 12 11 9 8 8 8 7 6 6 5 4 4 3 3 2
7 10 12 12 12 14 15 13 12 14 16 17 15 13 12 13 15 14 12 12 13 13 14 13 12 10 10 10 11 10 8 8 7 7 6 6 5 4 3 3 3 3 3
6 9 11 10 9 10 11 11 11 12 14 15 16 15 13 14 17 17 15 15 14 14 13 12 10 9 8 8 8 8 7 6 5 5 6 6 6 4 3 3 3 3 3
8 9 10 8 7 8 11 12 11 11 11 12 14 14 14 15 17 17 18 17 15 13 12 10 9 7 6 6 6 6 6 6 5 5 6 7 6 5 4 3 3 3 3
7 8 7 5 5 8 11 12 11 9 9 10 11 12 13 14 16 16 16 16 15 12 11 9 7 5 4 5 6 5 5 6 6 6 7 7 6 4 3 3 3 3 3
4 4 5 4 5 7 9 10 9 8 9 9 10 10 11 12 12 13 12 12 11 10 8 7 6 4 3 3 4 5 5 6 7 7 6 5 4 3 2 2 2 3 3
2 3 4 5 6 7 8 7 6 6 8 9 9 9 8 8 8 8 7 7 6 6 6 6 5 4 2 1 2 3 5 6 6 6 4 2 2 1 1 1 1 1 2
2 3 4 5 6 6 6 6 4 4 5 6 7 6 4 3 3 4 4 4 4 4 4 4 4 4 2 1 0 1 3 4 4 2 1 1 0 0 0 0 0 0 1
3 3 4 5 5 4 5 5 3 2 2 2 2 2 1 0 1 3 4 3 3 3 3 3 3 3 3 1 0 0 1 1 1 0 0 0 0 0 0 0 0 0 0
5 4 4 4 3 3 4 4 2 1 1 0 0 0 0 1 1 2 3 3 3 3 3 3 3 3 3 2 1 0 0 0 0 1 1 0 0 0 0 0 0 0 0
6 5 4 3 2 2 3 2 1 0 0 0 0 0 1 2 2 2 2 2 3 3 3 3 3 3 3 2 1 0 0 0 1 1 1 0 0 0 0 0 0 0 0
5 4 3 1 1 1 2 1 0 0 0 0 0 1 2 2 2 2 2 2 2 2 3 3 3 3 3 2 1 0 0 0 1 1 1 0 0 0 0 0 0 0 0
3 2 1 1 1 1 1 0 0 0 0 0 0 1 2 2 2 3 2 1 1 1 2 2 2 2 2 1 0 0 0 0 0 0 0 0 0 0 0 0 0 0 0
1 0 0 1 2 2 1 1 0 0 0 0 0 1 1 2 3 3 2 1 1 1 1 1 1 1 1 0 0 0 0 0 0 0 0 0 0 0 0 0 0 0 0
0 1 1 1 2 3 3 2 1 0 0 0 0 0 1 3 3 3 1 1 0 0 0 0 0 0 0 0 0 0 0 0 0 0 0 0 0 0 0 0 0 0 0
1 2 3 2 2 3 4 3 1 0 1 1 1 1 1 2 2 1 1 0 0 0 0 0 0 0 0 0 0 0 0 0 0 0 0 0 0 0 0 0 1 1 1
1 3 3 2 1 3 4 4 2 1 2 2 2 1 1 1 1 0 0 0 0 0 0 0 0 0 0 0 0 0 0 0 0 0 0 0 0 0 0 0 1 2 1
Wind_Speed
3 5 4 3 2 3 3 3 1 1 1 1 1 2 2 2 2 2 2 2 2 1 1 1 2 2 2 2 2 2 3 3 2 2 3 3 4 3 2 3 3 4 5
4 4 4 2 2 3 3 3 1 1 1 0 1 1 1 1 2 1 2 2 2 2 2 2 2 2 2 2 2 2 2 3 2 1 1 2 2 2 4 2 3 3 3
4 3 3 2 1 2 2 1 1 1 1 1 1 1 1 1 1 2 2 3 3 3 2 2 2 2 2 2 2 2 3 3 2 2 1 1 1 2 2 3 3 3 3
5 4 3 2 1 1 1 1 2 2 2 1 1 2 2 1 1 1 2 2 3 3 3 2 2 2 2 1 2 2 3 3 2 2 2 2 2 2 2 2 3 3 3
6 5 4 3 2 2 1 1 2 2 2 1 1 1 2 1 1 1 2 2 3 3 3 3 3 3 2 2 3 2 2 2 2 2 2 3 3 3 3 3 3 3 3
6 5 5 4 4 3 1 1 2 2 2 1 1 1 2 2 1 1 2 2 2 2 3 3 3 3 2 2 2 2 3 2 3 2 2 2 2 2 3 4 4 3 3
6 6 6 4 4 2 1 2 2 2 1 1 1 1 2 2 2 2 2 2 2 2 3 2 2 2 2 3 2 3 3 3 3 3 3 3 3 3 3 3 4 4 3
6 6 6 5 4 3 2 2 2 2 1 1 1 0 1 1 1 1 2 2 2 1 2 2 2 2 2 3 2 3 3 3 3 4 3 3 3 3 3 3 3 4 3
7 6 6 5 5 5 3 2 2 2 1 1 1 1 0 1 1 1 1 1 1 1 1 2 2 2 2 2 2 3 3 3 3 3 4 4 3 3 3 2 2 3 4
6 5 5 5 5 4 3 3 2 1 1 0 0 0 0 0 0 0 1 0 1 1 2 2 2 2 2 2 2 2 3 3 3 3 3 3 3 3 3 2 2 2 3
7 5 5 5 5 4 3 3 2 1 1 0 0 1 1 1 0 0 0 1 2 2 3 2 2 3 2 2 2 3 3 3 3 3 3 3 3 3 3 2 2 2 2
6 6 6 6 6 5 4 3 3 2 1 1 1 1 1 1 1 1 1 2 2 3 3 2 2 2 2 2 2 3 3 3 3 3 3 3 3 3 2 2 3 2 3
7 7 6 6 6 5 5 4 3 3 2 1 1 1 1 1 1 1 1 2 2 2 2 2 2 2 1 1 2 3 3 3 3 3 3 3 3 3 3 3 3 3 3
6 6 6 6 6 5 5 4 4 4 3 2 1 1 1 0 1 1 1 1 1 1 2 2 1 2 1 2 3 3 3 3 3 3 3 4 3 3 3 3 3 3 3
6 6 6 5 5 5 5 4 3 3 3 2 2 1 1 0 1 1 1 1 1 1 1 0 1 1 1 2 3 4 4 3 3 4 3 3 3 3 2 3 2 3 3
5 5 5 5 5 5 5 4 4 3 3 2 2 2 1 1 1 1 1 1 1 1 1 1 1 1 2 2 3 3 4 3 3 3 3 3 2 2 4 5 6 6 5
6 6 5 4 4 4 4 4 3 3 3 2 2 1 1 2 2 2 2 2 2 1 1 1 1 1 2 2 3 3 3 3 3 3 3 4 4 3 2 4 5 6 7
6 5 4 3 3 3 3 3 3 3 3 2 2 2 2 2 2 2 2 2 1 1 1 1 1 1 1 2 3 4 3 3 3 3 3 2 1 3 3 4 3 3 4
4 4 3 2 2 2 3 3 3 3 3 2 2 2 2 2 2 2 2 1 1 1 1 1 1 1 1 1 2 3 2 2 3 3 2 1 1 1 3 3 3 4 5
3 3 3 2 2 2 2 3 2 2 3 2 2 2 2 2 2 2 2 1 1 2 2 1 1 0 0 1 1 2 2 3 3 2 1 1 1 2 3 2 3 4 5
3 4 3 2 2 2 2 2 3 3 3 2 2 2 2 2 1 1 2 2 2 2 2 2 1 0 0 0 1 1 1 3 3 3 1 1 1 2 4 4 3 5 5
4 4 3 3 2 2 1 1 2 2 2 2 2 2 2 2 1 1 1 1 2 3 3 2 2 0 0 0 2 2 3 4 3 3 2 2 2 4 6 4 5 6 5
4 3 3 2 2 2 1 1 2 2 2 2 2 2 3 2 1 1 1 1 2 2 2 2 1 1 1 1 2 3 4 5 3 3 5 6 6 6 4 5 6 5 3
3 3 3 3 2 2 2 1 1 2 2 2 2 2 3 2 2 2 1 1 2 2 3 3 2 1 1 2 2 2 2 3 3 4 5 6 6 5 4 4 3 3 3
4 3 3 3 3 2 2 2 2 2 2 2 2 3 3 2 1 1 1 1 1 1 1 2 3 3 2 2 3 3 3 3 3 4 3 3 2 2 2 2 2 2 2
3 3 3 4 4 3 3 2 2 2 2 2 3 3 3 2 2 2 1 0 1 1 1 1 2 1 2 4 5 5 5 5 4 2 3 3 3 3 3 3 3 2 2
Wind_Direction
63 75 72 68 96 118 120 126 136 159 202 182 194 200 203 213 207 199 178 171 179 195 197 232 222 218 213 216 229 240 256 249 241 270 279 264 249 233 227 235 238 232 232
51 69 97 114 130 135 137 144 139 169 188 158 221 207 218 227 208 208 169 172 180 179 207 213 231 235 219 208 231 237 250 265 247 237 272 273 262 262 243 233 233 244 252
27 41 72 90 100 118 135 140 135 135 137 176 219 229 204 232 215 196 184 193 189 190 203 213 231 259 241 216 225 231 242 250 258 228 223 258 263 277 247 247 240 226 236
25 34 34 36 57 79 110 124 124 142 160 166 224 238 231 227 230 213 191 197 191 194 206 211 222 243 251 246 252 242 260 251 260 252 227 233 249 265 284 268 255 246 234
21 16 28 22 39 31 81 136 144 155 156 168 214 249 249 246 233 207 197 208 194 193 204 208 222 227 227 238 255 255 260 260 259 264 262 259 256 246 255 276 272 261 242
18 21 30 35 40 37 78 137 148 155 151 161 212 255 264 244 238 228 218 223 208 198 202 216 221 219 216 232 248 260 255 253 266 270 267 267 266 260 256 264 269 261 250
18 14 19 27 33 33 52 107 132 146 151 161 183 264 270 252 229 224 214 222 227 207 197 214 222 223 227 234 234 243 248 250 259 258 258 261 264 266 259 264 276 280 268
16 10 15 18 18 21 43 61 112 122 139 158 151 190 295 280 262 251 238 237 241 229 191 201 218 229 238 244 244 248 244 242 253 262 262 262 266 262 254 255 270 286 284
13 13 12 19 17 27 36 50 75 94 94 74 88 134 280 297 291 286 273 252 248 230 208 207 224 237 243 249 253 247 246 245 244 253 259 257 264 265 261 259 255 263 289
11 12 25 26 22 25 52 70 78 90 89 69 250 82 138 309 8 274 295 294 245 245 230 220 225 234 241 243 246 257 243 245 249 247 256 263 268 272 272 266 272 263 269
1 7 29 27 22 20 32 43 40 49 61 52 89 37 39 347 313 257 298 276 257 244 240 233 232 237 238 244 244 250 252 250 251 254 252 257 273 277 276 273 268 264 264
0 16 27 23 20 19 22 26 18 5 9 80 89 57 21 348 340 328 290 279 261 243 240 237 235 243 243 247 256 259 257 260 261 263 267 265 265 263 277 284 281 274 264
15 19 24 22 14 13 17 16 8 6 9 32 67 50 345 0 328 322 306 294 272 251 249 245 245 261 263 275 275 268 261 264 268 270 272 273 268 262 268 271 277 276 286
21 16 19 17 10 11 14 12 11 4 357 9 32 0 338 337 331 330 310 298 289 273 260 237 249 266 270 298 297 290 282 278 279 279 277 275 270 266 274 276 281 285 289
18 15 12 9 3 6 4 5 5 357 350 350 1 10 359 329 353 337 316 308 295 306 294 227 268 287 284 311 310 301 288 290 293 292 288 281 281 282 273 284 295 295 286
7 11 10 358 356 357 358 0 357 347 338 348 12 30 11 348 341 347 351 5 8 6 9 18 7 340 335 8 2 332 309 304 303 303 297 290 277 288 269 272 275 271 268
3 7 2 351 348 355 358 348 346 341 343 353 14 38 18 13 8 12 39 29 21 20 19 356 354 10 27 4 356 341 309 300 304 303 302 303 324 3 322 287 269 267 263
3 358 350 348 347 351 348 341 340 344 354 8 20 28 25 16 7 29 33 15 1 357 348 328 326 344 26 9 347 331 301 298 303 299 294 286 316 319 324 308 298 281 277
6 347 337 345 350 342 334 333 337 347 356 5 12 10 9 8 14 24 14 360 343 323 297 311 334 348 45 315 317 320 295 299 303 301 311 300 276 305 319 308 307 308 303
7 347 348 353 344 337 333 338 341 347 349 348 350 2 4 357 11 14 359 346 319 310 304 328 304 286 36 299 303 318 307 310 305 298 296 351 325 321 326 310 305 300 301
354 347 342 341 338 334 346 349 348 340 331 331 348 350 342 347 25 9 358 351 327 321 315 318 305 307 96 234 294 270 298 310 309 314 328 340 335 294 287 284 281 281 295
340 335 329 331 333 330 330 340 328 321 317 325 339 332 323 318 355 356 343 346 335 307 290 277 278 266 133 315 280 249 249 286 309 316 323 315 303 294 285 281 279 288 299
329 323 315 313 316 315 315 316 314 318 327 335 326 318 309 303 302 279 289 284 279 292 304 293 288 337 11 358 310 274 266 275 279 300 310 305 289 287 279 265 272 281 283
316 309 307 301 297 291 295 306 309 298 303 300 301 296 289 278 284 283 272 294 328 328 335 339 337 355 1 357 338 316 284 282 286 296 299 291 286 280 280 286 277 258 264
310 298 291 284 287 286 282 277 285 281 295 289 284 276 266 275 277 296 327 330 342 326 318 341 341 340 341 321 316 326 324 322 328 313 299 289 294 295 295 303 297 283 286
302 293 287 285 285 282 282 285 277 277 277 279 280 277 270 264 251 234 218 12 218 212 195 227 284 297 276 288 301 308 311 310 312 311 298 311 326 328 329 327 324 329 331